TimeCST,TemperatureF,Dew PointF,Humidity,Sea Level PressureIn,VisibilityMPH,Wind Direction,Wind SpeedMPH,Gust SpeedMPH,PrecipitationIn,Events,Conditions,WindDirDegrees,DateUTC
12:15 AM,33.6,32.2,94,30.32,4.0,Calm,Calm,-,N/A,,Clear,0,2013-11-08 06:15:00
12:35 AM,33.4,32.0,94,30.32,7.0,Calm,Calm,-,N/A,,Clear,0,2013-11-08 06:35:00
12:55 AM,33.1,32.0,96,30.33,7.0,Calm,Calm,-,N/A,,Clear,0,2013-11-08 06:55:00
1:15 AM,33.8,32.4,94,30.33,7.0,Calm,Calm,-,N/A,,Clear,0,2013-11-08 07:15:00
1:35 AM,33.4,32.2,95,30.33,10.0,Calm,Calm,-,N/A,,Clear,0,2013-11-08 07:35:00
1:55 AM,32.9,32.0,96,30.34,10.0,Calm,Calm,-,N/A,,Clear,0,2013-11-08 07:55:00
2:15 AM,32.7,31.8,96,30.35,7.0,Calm,Calm,-,N/A,,Clear,0,2013-11-08 08:15:00
2:35 AM,32.0,31.1,96,30.34,2.5,Calm,Calm,-,N/A,,Clear,0,2013-11-08 08:35:00
2:55 AM,32.0,30.7,95,30.34,7.0,Calm,Calm,-,N/A,,Clear,0,2013-11-08 08:55:00
3:15 AM,31.8,30.6,95,30.35,7.0,Calm,Calm,-,N/A,,Clear,0,2013-11-08 09:15:00
3:35 AM,32.0,31.1,96,30.35,7.0,South,4.6,-,N/A,,Clear,180,2013-11-08 09:35:00
3:55 AM,32.0,31.1,96,30.35,5.0,Calm,Calm,-,N/A,,Clear,0,2013-11-08 09:55:00
4:15 AM,30.9,29.7,95,30.36,7.0,Calm,Calm,-,N/A,,Clear,0,2013-11-08 10:15:00
4:35 AM,31.1,30.2,96,30.36,7.0,Calm,Calm,-,N/A,,Clear,0,2013-11-08 10:35:00
4:55 AM,32.0,30.9,96,30.36,5.0,Calm,Calm,-,N/A,,Clear,0,2013-11-08 10:55:00
5:15 AM,30.0,28.9,96,30.36,5.0,Calm,Calm,-,N/A,,Clear,0,2013-11-08 11:15:00
5:35 AM,30.9,29.5,94,30.36,5.0,Calm,Calm,-,N/A,,Clear,0,2013-11-08 11:35:00
5:55 AM,30.6,29.3,95,30.36,4.0,Calm,Calm,-,N/A,,Clear,0,2013-11-08 11:55:00
6:15 AM,30.2,29.1,96,30.37,7.0,Calm,Calm,-,N/A,,Clear,0,2013-11-08 12:15:00
6:35 AM,30.7,29.3,94,30.37,4.0,Calm,Calm,-,N/A,,Clear,0,2013-11-08 12:35:00
6:55 AM,30.2,28.9,95,30.38,5.0,Calm,Calm,-,N/A,,Clear,0,2013-11-08 12:55:00
7:15 AM,32.0,31.1,96,30.38,7.0,Calm,Calm,-,N/A,,Clear,0,2013-11-08 13:15:00
7:35 AM,33.8,32.0,93,30.38,7.0,Calm,Calm,-,N/A,,Clear,0,2013-11-08 13:35:00
7:55 AM,36.5,34.9,94,30.39,7.0,Calm,Calm,-,N/A,,Clear,0,2013-11-08 13:55:00
8:15 AM,41.2,38.1,89,30.39,10.0,Calm,Calm,-,N/A,,Clear,0,2013-11-08 14:15:00
8:35 AM,44.6,39.2,81,30.38,10.0,Calm,Calm,-,N/A,,Clear,0,2013-11-08 14:35:00
8:55 AM,47.3,39.0,73,30.38,10.0,Calm,Calm,-,N/A,,Clear,0,2013-11-08 14:55:00
9:15 AM,49.5,35.4,58,30.38,10.0,SE,4.6,-,N/A,,Clear,130,2013-11-08 15:15:00
9:35 AM,50.4,33.6,53,30.38,10.0,SE,5.8,-,N/A,,Clear,140,2013-11-08 15:35:00
9:55 AM,51.1,34.0,52,30.38,10.0,SE,6.9,-,N/A,,Clear,140,2013-11-08 15:55:00
10:15 AM,52.2,33.3,49,30.37,10.0,SSE,8.1,-,N/A,,Clear,150,2013-11-08 16:15:00
10:35 AM,53.1,33.6,48,30.37,10.0,SSE,8.1,-,N/A,,Clear,160,2013-11-08 16:35:00
10:55 AM,53.4,32.7,45,30.36,10.0,SSE,9.2,-,N/A,,Clear,150,2013-11-08 16:55:00
11:15 AM,54.3,32.2,43,30.35,10.0,SE,10.4,-,N/A,,Clear,130,2013-11-08 17:15:00
11:35 AM,55.0,32.7,43,30.33,10.0,SE,9.2,-,N/A,,Clear,140,2013-11-08 17:35:00
11:55 AM,55.8,32.7,42,30.32,10.0,South,9.2,-,N/A,,Clear,170,2013-11-08 17:55:00
12:15 PM,56.3,32.0,40,30.30,10.0,South,11.5,-,N/A,,Clear,170,2013-11-08 18:15:00
12:35 PM,56.3,31.8,39,30.29,10.0,SSE,12.7,17.3,N/A,,Clear,150,2013-11-08 18:35:00
12:55 PM,56.7,32.0,39,30.29,10.0,South,11.5,-,N/A,,Clear,170,2013-11-08 18:55:00
1:15 PM,56.8,31.1,38,30.28,10.0,SSE,12.7,-,N/A,,Clear,150,2013-11-08 19:15:00
1:35 PM,57.6,30.7,36,30.28,10.0,South,15.0,21.9,N/A,,Clear,180,2013-11-08 19:35:00
1:55 PM,57.7,30.2,35,30.27,10.0,SSE,12.7,-,N/A,,Clear,160,2013-11-08 19:55:00
2:15 PM,58.1,31.8,37,30.25,10.0,South,10.4,-,N/A,,Clear,180,2013-11-08 20:15:00
2:35 PM,57.7,30.4,35,30.25,10.0,SSE,11.5,-,N/A,,Clear,160,2013-11-08 20:35:00
2:55 PM,58.1,30.4,35,30.24,10.0,SSE,12.7,17.3,N/A,,Clear,150,2013-11-08 20:55:00
3:15 PM,57.7,30.7,36,30.23,10.0,SSE,10.4,-,N/A,,Clear,150,2013-11-08 21:15:00
3:35 PM,57.6,31.1,37,30.22,10.0,SSE,10.4,-,N/A,,Clear,150,2013-11-08 21:35:00
3:55 PM,56.5,31.3,38,30.21,10.0,SSE,9.2,-,N/A,,Clear,160,2013-11-08 21:55:00
4:15 PM,54.5,31.8,42,30.20,10.0,SSE,8.1,-,N/A,,Clear,150,2013-11-08 22:15:00
4:35 PM,52.0,32.2,47,30.20,10.0,SE,5.8,-,N/A,,Clear,140,2013-11-08 22:35:00
4:55 PM,51.3,32.0,48,30.19,10.0,SE,6.9,-,N/A,,Clear,140,2013-11-08 22:55:00
5:15 PM,50.0,32.0,50,30.19,10.0,SSE,4.6,-,N/A,,Clear,150,2013-11-08 23:15:00
5:35 PM,48.6,32.2,53,30.19,10.0,SE,6.9,-,N/A,,Clear,140,2013-11-08 23:35:00
5:55 PM,48.9,32.9,54,30.19,10.0,SE,5.8,-,N/A,,Clear,140,2013-11-08 23:55:00
6:15 PM,49.3,33.4,54,30.17,10.0,SE,8.1,-,N/A,,Clear,140,2013-11-09 00:15:00
6:35 PM,50.4,33.1,52,30.17,10.0,SSE,8.1,-,N/A,,Clear,150,2013-11-09 00:35:00
6:55 PM,50.7,32.5,50,30.17,10.0,SSE,10.4,-,N/A,,Clear,160,2013-11-09 00:55:00
7:15 PM,51.1,32.5,49,30.17,10.0,SSE,9.2,-,N/A,,Clear,150,2013-11-09 01:15:00
7:35 PM,50.7,32.9,51,30.18,10.0,SSE,8.1,-,N/A,,Clear,150,2013-11-09 01:35:00
7:55 PM,49.1,33.4,55,30.17,10.0,SSE,6.9,-,N/A,,Clear,160,2013-11-09 01:55:00
8:15 PM,49.1,33.8,56,30.17,10.0,SSE,9.2,-,N/A,,Clear,160,2013-11-09 02:15:00
8:35 PM,49.1,33.8,56,30.17,10.0,South,11.5,-,N/A,,Clear,170,2013-11-09 02:35:00
8:55 PM,49.6,33.4,54,30.17,10.0,South,12.7,-,N/A,,Clear,170,2013-11-09 02:55:00
9:15 PM,49.1,33.6,55,30.17,10.0,South,12.7,-,N/A,,Clear,170,2013-11-09 03:15:00
9:35 PM,49.1,33.4,55,30.17,10.0,SSE,10.4,-,N/A,,Clear,160,2013-11-09 03:35:00
9:55 PM,48.9,33.6,56,30.16,10.0,South,15.0,-,N/A,,Clear,170,2013-11-09 03:55:00
10:15 PM,48.6,33.6,56,30.15,10.0,South,15.0,-,N/A,,Clear,170,2013-11-09 04:15:00
10:35 PM,48.7,33.4,56,30.15,10.0,South,13.8,20.7,N/A,,Clear,170,2013-11-09 04:35:00
10:55 PM,48.2,33.8,58,30.14,10.0,South,11.5,-,N/A,,Clear,170,2013-11-09 04:55:00
11:15 PM,48.2,33.8,58,30.13,10.0,South,11.5,-,N/A,,Clear,170,2013-11-09 05:15:00
11:35 PM,48.0,33.8,58,30.14,10.0,South,10.4,-,N/A,,Clear,170,2013-11-09 05:35:00
11:55 PM,48.7,34.0,57,30.14,10.0,South,10.4,-,N/A,,Clear,170,2013-11-09 05:55:00